| time (UTC) | temp F | wind direction | speed MPH | gust MPH | rain 1hr in | rain 24hr in | rain mn in | humidity % | barometer mb |
| 20260504043057 | 49 | 279 | 3.0 | 7.0 | 0.00 | 0.00 | 0.00 | 58 | 1010.5 |
| 20260504041548 | 49 | 273 | 1.0 | 9.0 | 0.00 | 0.00 | 0.00 | 57 | 1010.8 |
| 20260504040044 | 49 | 327 | 4.0 | 12.0 | 0.00 | 0.00 | 0.00 | 58 | 1011.0 |
| 20260504034547 | 50 | 284 | 1.0 | 6.0 | 0.00 | 0.00 | 0.00 | 57 | 1011.0 |
| 20260504033034 | 49 | 268 | 2.0 | 5.0 | 0.00 | 0.00 | 0.00 | 58 | 1010.9 |
| 20260504031530 | 50 | 245 | 2.0 | 7.0 | 0.00 | 0.00 | 0.00 | 58 | 1011.0 |
| 20260504030036 | 51 | 252 | 2.0 | 5.0 | 0.00 | 0.00 | 0.00 | 57 | 1011.1 |
| 20260504024520 | 51 | 253 | 3.0 | 6.0 | 0.00 | 0.00 | 0.00 | 55 | 1011.1 |
| 20260504023016 | 52 | 270 | 2.0 | 7.0 | 0.00 | 0.00 | 0.00 | 54 | 1011.2 |
| 20260504021512 | 53 | 260 | 2.0 | 5.0 | 0.00 | 0.00 | 0.00 | 53 | 1011.2 |
| 20260504020008 | 54 | 270 | 2.0 | 8.0 | 0.00 | 0.00 | 0.00 | 51 | 1011.2 |
| 20260504014505 | 54 | 254 | 2.0 | 7.0 | 0.00 | 0.00 | 0.00 | 50 | 1011.1 |
| 20260504013112 | 54 | 248 | 2.0 | 6.0 | 0.00 | 0.00 | 0.00 | 50 | 1011.0 |
| 20260504011557 | 55 | 275 | 2.0 | 5.0 | 0.00 | 0.00 | 0.00 | 49 | 1010.9 |
| 20260504010057 | 56 | 271 | 2.0 | 6.0 | 0.00 | 0.00 | 0.00 | 48 | 1010.9 |
| 20260504004546 | 56 | 294 | 2.0 | 8.0 | 0.00 | 0.00 | 0.00 | 46 | 1010.9 |
| 20260504003046 | 57 | 290 | 3.0 | 7.0 | 0.00 | 0.00 | 0.00 | 44 | 1010.8 |
| 20260504001547 | 57 | 321 | 6.0 | 15.0 | 0.00 | 0.00 | 0.00 | 43 | 1010.8 |
| 20260504000034 | 58 | 315 | 5.0 | 10.0 | 0.00 | 0.00 | 0.00 | 43 | 1010.8 |
| 20260503234532 | 59 | 270 | 3.0 | 10.0 | 0.00 | 0.00 | 0.00 | 42 | 1010.8 |
| 20260503233024 | 59 | 291 | 4.0 | 10.0 | 0.00 | 0.00 | 0.00 | 42 | 1010.9 |
| 20260503231521 | 59 | 348 | 7.0 | 15.0 | 0.00 | 0.00 | 0.00 | 41 | 1010.9 |
| 20260503230016 | 59 | 313 | 5.0 | 15.0 | 0.00 | 0.00 | 0.00 | 42 | 1010.9 |
| 20260503224511 | 60 | 304 | 6.0 | 12.0 | 0.00 | 0.00 | 0.00 | 41 | 1011.0 |
| 20260503223006 | 60 | 306 | 5.0 | 11.0 | 0.00 | 0.00 | 0.00 | 42 | 1011.0 |
| 20260503221502 | 60 | 294 | 5.0 | 10.0 | 0.00 | 0.00 | 0.00 | 44 | 1011.1 |
| 20260503220105 | 59 | 329 | 5.0 | 12.0 | 0.00 | 0.00 | 0.00 | 44 | 1011.2 |
| 20260503214557 | 59 | 302 | 4.0 | 11.0 | 0.00 | 0.00 | 0.00 | 43 | 1011.2 |
| 20260503213120 | 59 | 338 | 6.0 | 14.0 | 0.00 | 0.00 | 0.00 | 43 | 1011.0 |
| 20260503211612 | 59 | 319 | 6.0 | 14.0 | 0.00 | 0.00 | 0.00 | 43 | 1011.1 |
| 20260503210041 | 60 | 311 | 6.0 | 18.0 | 0.00 | 0.00 | 0.00 | 41 | 1010.9 |
| 20260503204552 | 59 | 355 | 4.0 | 13.0 | 0.00 | 0.00 | 0.00 | 40 | 1011.0 |
| 20260503203035 | 60 | 340 | 8.0 | 16.0 | 0.00 | 0.00 | 0.00 | 36 | 1011.3 |
| 20260503201527 | 59 | 315 | 6.0 | 20.0 | 0.00 | 0.00 | 0.00 | 35 | 1011.5 |
| 20260503200023 | 60 | 38 | 7.0 | 21.0 | 0.00 | 0.00 | 0.00 | 34 | 1011.7 |
| 20260503194523 | 61 | 299 | 8.0 | 18.0 | 0.00 | 0.00 | 0.00 | 34 | 1011.8 |
| 20260503193014 | 60 | 16 | 8.0 | 19.0 | 0.00 | 0.00 | 0.00 | 35 | 1012.1 |
| 20260503191510 | 61 | 11 | 7.0 | 18.0 | 0.00 | 0.00 | 0.00 | 35 | 1012.4 |
| 20260503190006 | 61 | 343 | 6.0 | 24.0 | 0.00 | 0.00 | 0.00 | 36 | 1012.5 |
| 20260503184501 | 60 | 313 | 9.0 | 18.0 | 0.00 | 0.00 | 0.00 | 35 | 1012.6 |
| 20260503183106 | 60 | 324 | 7.0 | 17.0 | 0.00 | 0.00 | 0.00 | 36 | 1012.7 |
| 20260503181555 | 61 | 360 | 6.0 | 17.0 | 0.00 | 0.00 | 0.00 | 37 | 1013.0 |
| 20260503180049 | 60 | 342 | 7.0 | 19.0 | 0.00 | 0.00 | 0.00 | 36 | 1013.0 |
| 20260503174558 | 58 | 22 | 7.0 | 14.0 | 0.00 | 0.00 | 0.00 | 37 | 1013.2 |
| 20260503173039 | 58 | 332 | 8.0 | 17.0 | 0.00 | 0.00 | 0.00 | 37 | 1013.3 |
| 20260503171536 | 58 | 309 | 4.0 | 19.0 | 0.00 | 0.00 | 0.00 | 39 | 1013.5 |
| 20260503081601 | 31 | 242 | 1.0 | 4.0 | 0.00 | 0.00 | 0.00 | 7 | 1015.5 |
| 20260503071602 | 32 | 270 | 0.0 | 2.0 | 0.00 | 0.00 | 0.00 | 5 | 1015.6 |
| 20260503054526 | 32 | 287 | 1.0 | 2.0 | 0.00 | 0.00 | 0.00 | 8 | 1016.0 |
| 20260503053009 | 33 | 287 | 1.0 | 2.0 | 0.00 | 0.00 | 0.00 | 12 | 1016.1 |
| 20260503051504 | 33 | 287 | 1.0 | 2.0 | 0.00 | 0.00 | 0.00 | 19 | 1016.1 |
| 20260503050003 | 35 | 288 | 0.0 | 2.0 | 0.00 | 0.00 | 0.00 | 28 | 1016.2 |
| 20260503044557 | 35 | 288 | 1.0 | 3.0 | 0.00 | 0.00 | 0.00 | 32 | 1016.2 |